Date String (YYYY-MM-DD hh:mm:ss) UTC,Instrument flags,Ambient pressure (hPa),Sample flow (lpm),Bypass flow (lpm),Sample temperature (°C),Ambient temperature (°C),ASC tube jacket temperature (°C),LED temperature (°C),Box temperature (°C),Sample RH (%),Span deviation,Mass concentration (μg/m³),Mass concentration (μg/m³),Mass concentration (μg/m³)
DateTimeUTC,F1_M11,P_M11,Q1_M11,Q2_M11,T1_M11,T2_M11,T3_M11,T4_M11,T5_M11,U1_M11,ZSPAN_M11,X2_M11,X0_M11,X1_M11
2022-07-10 05:00:00,,0830.8,5.00,0.00,29.3,27.9,00.0,38.1,31.2,19.3,0000.0,0004.02,0009.79,0003.48
2022-07-10 05:01:00,,0830.7,5.00,0.00,29.4,28.1,00.0,38.1,31.3,19.2,0000.0,0004.03,0009.61,0003.50
2022-07-10 05:02:00,,0830.7,5.00,0.00,29.4,28.2,00.0,38.1,31.3,19.2,0000.0,0004.05,0009.54,0003.52
2022-07-10 05:03:00,,0830.7,5.00,0.00,29.4,28.3,00.0,38.1,31.4,18.6,0000.0,0004.12,0009.89,0003.57
2022-07-10 05:04:00,,0830.7,5.00,0.00,29.5,28.4,00.0,38.2,31.4,18.9,0000.0,0004.14,0010.05,0003.60
2022-07-10 05:05:00,,0830.6,5.00,0.00,29.5,28.5,00.0,38.2,31.5,18.8,0000.0,0004.11,0009.98,0003.62
2022-07-10 05:06:00,,0830.6,5.00,0.00,29.5,28.0,00.0,38.1,31.4,18.6,0000.0,0004.15,0009.06,0003.64
2022-07-10 05:07:00,,0830.6,4.99,0.00,29.5,27.5,00.0,38.1,31.3,18.6,0000.0,0004.18,0008.89,0003.67
2022-07-10 05:08:00,,0830.6,5.00,0.00,29.5,27.4,00.0,38.1,31.3,18.9,0000.0,0004.24,0009.83,0003.69
2022-07-10 05:09:00,,0830.6,5.00,0.00,29.4,27.5,00.0,38.1,31.2,19.1,0000.0,0004.25,0010.60,0003.68
2022-07-10 05:10:00,,0830.6,5.00,0.00,29.4,27.6,00.0,38.1,31.2,19.0,0000.0,0004.28,0010.78,0003.69
2022-07-10 05:11:00,,0830.6,5.00,0.00,29.4,27.8,00.0,38.1,31.3,19.1,0000.0,0004.31,0010.41,0003.70
2022-07-10 05:12:00,,0830.6,4.99,0.00,29.4,27.9,00.0,38.1,31.3,19.1,0000.0,0004.31,0010.45,0003.70
2022-07-10 05:13:00,,0830.6,5.00,0.00,29.4,28.1,00.0,38.2,31.4,19.1,0000.0,0004.32,0010.51,0003.71
2022-07-10 05:14:00,,0830.6,5.01,0.00,29.5,28.2,00.0,38.2,31.4,19.0,0000.0,0004.30,0010.28,0003.70
2022-07-10 05:15:00,,0830.6,5.00,0.00,29.5,28.3,00.0,38.2,31.4,18.7,0000.0,0004.31,0010.09,0003.70
2022-07-10 05:16:00,,0830.6,5.00,0.00,29.5,28.3,00.0,38.2,31.5,18.2,0000.0,0004.32,0010.10,0003.71
2022-07-10 05:17:00,,0830.6,5.00,0.00,29.5,27.5,00.0,38.1,31.3,18.6,0000.0,0004.32,0010.05,0003.71
2022-07-10 05:18:00,,0830.6,5.01,0.00,29.4,26.8,00.0,38.1,31.2,18.8,0000.0,0004.31,0010.09,0003.71
2022-07-10 05:19:00,,0830.6,5.00,0.00,29.4,26.7,00.0,38.1,31.1,18.6,0000.0,0004.27,0009.07,0003.69
2022-07-10 05:20:00,,0830.6,5.00,0.00,29.3,26.8,00.0,38.1,31.0,18.6,0000.0,0004.25,0008.39,0003.68
2022-07-10 05:21:00,,0830.5,5.01,0.00,29.3,27.0,00.0,38.1,31.0,18.6,0000.0,0004.21,0008.23,0003.67
2022-07-10 05:22:00,,0830.5,5.00,0.00,29.3,27.2,00.0,38.0,31.0,18.3,0000.0,0004.19,0007.82,0003.65
2022-07-10 05:23:00,,0830.5,5.00,0.00,29.3,27.4,00.0,38.0,31.1,18.4,0000.0,0004.17,0008.73,0003.64
2022-07-10 05:24:00,,0830.6,5.00,0.00,29.3,27.6,00.0,38.1,31.1,18.6,0000.0,0004.13,0008.67,0003.63
2022-07-10 05:25:00,,0830.5,5.00,0.00,29.3,27.8,00.0,38.1,31.2,18.7,0000.0,0004.10,0008.65,0003.61
2022-07-10 05:26:00,,0830.5,5.01,0.00,29.3,28.0,00.0,38.1,31.2,18.5,0000.0,0004.10,0009.12,0003.60
2022-07-10 05:27:00,,0830.6,4.99,0.00,29.3,28.1,00.0,38.1,31.3,18.5,0000.0,0004.11,0009.90,0003.60
2022-07-10 05:28:00,,0830.6,5.00,0.00,29.4,28.2,00.0,38.1,31.3,18.5,0000.0,0004.07,0010.21,0003.57
2022-07-10 05:29:00,,0830.6,5.01,0.00,29.4,28.3,00.0,38.1,31.4,18.4,0000.0,0004.01,0010.75,0003.53
2022-07-10 05:30:00,,0830.6,5.00,0.00,29.5,28.1,00.0,37.5,30.3,18.5,0000.0,0004.01,0011.24,0003.50
2022-07-10 05:31:00,,0830.6,5.00,0.00,29.5,28.3,00.0,38.1,31.5,18.4,0000.0,0003.99,0011.25,0003.48
2022-07-10 05:32:00,,0830.6,5.00,0.00,29.5,27.5,00.0,38.1,31.3,18.5,0000.0,0003.98,0011.43,0003.46
2022-07-10 05:33:00,,0830.6,5.00,0.00,29.4,26.8,00.0,38.1,31.2,18.5,0000.0,0003.93,0011.60,0003.44
2022-07-10 05:34:00,,0830.6,4.99,0.00,29.3,26.8,00.0,38.0,31.1,18.5,0000.0,0003.91,0011.22,0003.42
2022-07-10 05:35:00,,0830.6,5.00,0.00,29.3,26.9,00.0,38.0,31.0,18.6,0000.0,0003.89,0011.24,0003.39
2022-07-10 05:36:00,,0830.6,5.00,0.00,29.2,27.0,00.0,38.0,31.0,18.5,0000.0,0003.82,0011.20,0003.35
2022-07-10 05:37:00,,0830.6,4.99,0.00,29.2,27.2,00.0,38.0,31.0,18.5,0000.0,0003.76,0010.72,0003.32
2022-07-10 05:38:00,,0830.6,5.00,0.00,29.2,27.4,00.0,38.0,31.1,18.4,0000.0,0003.70,0009.75,0003.29
2022-07-10 05:39:00,,0830.5,5.01,0.00,29.2,27.6,00.0,38.0,31.1,18.3,0000.0,0003.70,0009.36,0003.27
2022-07-10 05:40:00,,0830.5,5.00,0.00,29.3,27.8,00.0,38.0,31.2,18.3,0000.0,0003.70,0008.74,0003.28
2022-07-10 05:41:00,,0830.5,5.00,0.00,29.3,27.9,00.0,38.1,31.2,18.3,0000.0,0003.69,0008.11,0003.28
2022-07-10 05:42:00,,0830.5,5.00,0.00,29.3,28.1,00.0,38.1,31.2,18.2,0000.0,0003.66,0007.98,0003.28
2022-07-10 05:43:00,,0830.5,5.00,0.00,29.4,28.2,00.0,38.1,31.3,18.2,0000.0,0003.64,0007.86,0003.26
2022-07-10 05:44:00,,0830.6,4.99,0.00,29.4,28.3,00.0,38.1,31.4,18.0,0000.0,0003.66,0007.53,0003.26
2022-07-10 05:45:00,,0830.6,4.99,0.00,29.4,28.4,00.0,38.1,31.4,17.9,0000.0,0003.66,0006.73,0003.26
2022-07-10 05:46:00,,0830.5,5.00,0.00,29.5,28.5,00.0,38.1,31.4,18.0,0000.0,0003.65,0006.38,0003.26
2022-07-10 05:47:00,,0830.6,5.01,0.00,29.5,28.6,00.0,38.2,31.5,17.9,0000.0,0003.69,0006.43,0003.26
2022-07-10 05:48:00,,0830.5,5.00,0.00,29.5,28.1,00.0,38.1,31.5,17.7,0000.0,0003.75,0007.23,0003.26
2022-07-10 05:49:00,,0830.5,5.00,0.00,29.5,27.2,00.0,38.1,31.3,17.7,0000.0,0003.75,0007.37,0003.26
2022-07-10 05:50:00,,0830.5,5.00,0.00,29.4,26.9,00.0,38.1,31.2,17.7,0000.0,0003.74,0007.34,0003.27
2022-07-10 05:51:00,,0830.5,4.99,0.00,29.4,27.0,00.0,38.1,31.1,17.6,0000.0,0003.73,0007.28,0003.26
2022-07-10 05:52:00,,0830.5,5.01,0.00,29.3,27.1,00.0,38.0,31.0,17.7,0000.0,0003.69,0007.13,0003.25
2022-07-10 05:53:00,,0830.5,5.00,0.00,29.3,27.2,00.0,38.0,31.1,17.8,0000.0,0003.73,0007.30,0003.26
2022-07-10 05:54:00,,0830.5,5.00,0.00,29.3,27.4,00.0,38.0,31.1,17.8,0000.0,0003.74,0007.26,0003.26
2022-07-10 05:55:00,,0830.4,5.00,0.00,29.3,27.6,00.0,38.1,31.1,17.7,0000.0,0003.71,0007.23,0003.25
2022-07-10 05:56:00,,0830.5,5.01,0.00,29.3,27.8,00.0,38.1,31.2,17.6,0000.0,0003.72,0007.39,0003.24
2022-07-10 05:57:00,,0830.4,4.99,0.00,29.3,27.9,00.0,38.1,31.2,17.3,0000.0,0003.73,0007.79,0003.24
2022-07-10 05:58:00,,0830.4,5.00,0.00,29.4,28.1,00.0,38.1,31.3,17.2,0000.0,0003.70,0007.66,0003.23
2022-07-10 05:59:00,,0830.4,5.00,0.00,29.4,28.2,00.0,38.1,31.3,17.3,0000.0,0003.65,0007.05,0003.23
